[[{"header":{"parameterUnit":"m.s-1","parameterCategory":1,"la1":30.2991,"la2":30.254,"lo1":-89.0895,"lo2":-89.0444,"dy":0.0017,"dx":0.0017,"nx":28,"ny":28,"refTime":"2023-08-22T09:00:00:Z","depth":0,"parameterNumber":2,"parameterNumberName":"U-component_of_WINDS"},"data":[0,0,0,0,0,0,0,0,0,0,0,0,0,0,0,0,0,0,0,0,0,0,0,0,0,0,0,0,0,0,0,0,0,0,0,0,0,0,0,0,0,0,0,0,0,0,0,0,0,0,0,0,0,0,0,0,0,0,-0.2651,-0.2651,0,-0.2639,-0.2639,-0.2639,-0.2697,-0.2699,-0.27,-0.2702,-0.2687,-0.2685,-0.2683,0,0,0,0,0,0,0,0,0,0,0,0,0,-0.2722,-0.272,-0.2651,-0.2651,-0.2651,-0.2639,-0.2639,-0.2639,-0.2697,-0.2699,-0.2701,-0.2703,-0.2688,-0.2686,-0.2683,0,0,0,0,0,0,0,0,0,0,0,0,0,-0.2699,-0.272,-0.2651,-0.2678,-0.2681,-0.2639,-0.2639,-0.2639,-0.2696,-0.2699,-0.2701,-0.2704,-0.2689,-0.2686,-0.2683,-0.2614,0,0,-0.2674,-0.2673,0,0,0,0,0,0,0,0,-0.27,-0.2696,-0.2675,-0.2676,-0.2679,-0.2672,-0.2659,-0.263,-0.2696,-0.269,-0.2702,-0.2705,-0.268,-0.2678,-0.267,-0.2613,-0.2613,-0.2674,-0.2672,-0.2671,-0.267,0,0,0,0,0,0,0,-0.2701,-0.2697,-0.2646,-0.2674,-0.2677,-0.269,-0.269,-0.2653,-0.2671,-0.2691,-0.2695,-0.2693,-0.2682,-0.2673,-0.267,-0.2612,-0.2674,-0.2671,-0.2669,-0.2668,-0.2497,-0.2494,0,0,0,0,0,0,-0.27,-0.2698,-0.2647,-0.2646,-0.2696,-0.2687,-0.2687,-0.2672,-0.2672,-0.2674,-0.2691,-0.2696,-0.2677,-0.2674,-0.267,-0.2588,-0.2671,-0.2668,-0.2666,-0.25,-0.2496,-0.2493,0,0,0,0,0,0,-0.2701,-0.2695,-0.2647,-0.2673,-0.2668,-0.2683,-0.2666,-0.267,-0.2661,-0.2672,-0.2675,-0.2679,-0.2678,-0.2674,-0.2627,-0.2588,-0.2667,-0.2664,-0.2503,-0.2499,-0.2495,-0.2424,0,0,0,0,0,0,-0.2703,-0.2695,-0.2669,-0.2672,-0.2666,-0.2605,-0.2664,-0.2668,-0.2656,-0.2663,-0.2661,-0.2663,-0.268,-0.2631,-0.2624,-0.2586,-0.2662,-0.2507,-0.2501,-0.2496,-0.243,-0.2418,-0.2408,0,0,0,0,0,-0.2705,-0.265,-0.2668,-0.2661,-0.2635,-0.2603,-0.26,-0.2621,-0.2653,-0.2627,-0.2633,-0.2663,-0.2594,-0.2626,-0.2619,-0.2578,-0.2509,-0.2503,-0.2497,-0.2435,-0.242,-0.2408,0,0,0,0,0,0,-0.2641,-0.265,-0.2671,-0.2614,-0.2607,-0.2613,-0.2581,-0.2605,-0.2588,-0.2595,-0.2622,-0.2621,-0.2569,-0.2569,-0.2605,-0.2511,-0.2557,-0.2549,-0.2512,-0.2499,-0.2488,-0.2488,-0.2659,0,0,0,0,0,-0.2621,-0.2595,-0.2604,-0.2553,-0.2549,-0.2565,-0.2552,-0.2569,-0.2563,-0.256,-0.2563,-0.2555,-0.2532,-0.2515,-0.2494,-0.2431,-0.243,-0.2399,-0.2388,-0.2379,-0.2371,-0.2336,-0.2322,-0.2473,-0.2473,-0.2473,0,0,-0.2577,-0.2579,-0.2561,-0.254,-0.2537,-0.2508,-0.2562,-0.253,-0.2509,-0.2555,-0.2511,-0.2513,-0.2505,-0.2449,-0.2425,-0.2448,-0.233,-0.2371,-0.2364,-0.2361,-0.2328,-0.2314,-0.2301,-0.2469,-0.2469,-0.247,0,0,-0.2484,-0.2484,-0.2441,-0.2437,-0.2431,-0.2442,-0.2432,-0.2433,-0.2437,-0.2393,-0.2427,-0.2402,-0.2361,-0.2354,-0.2345,-0.2249,-0.2275,-0.2241,-0.2183,-0.2148,-0.2137,-0.2126,-0.209,-0.2077,-0.2234,-0.2234,-0.2234,0,-0.2431,-0.239,-0.2416,-0.2381,-0.237,-0.2411,-0.2368,-0.2362,-0.2349,-0.234,-0.2367,-0.2316,-0.2314,-0.2257,-0.2233,-0.2225,-0.2213,-0.2241,-0.2136,-0.2126,-0.2117,-0.2083,-0.207,-0.223,-0.223,-0.223,-0.2231,0,-0.2324,-0.2296,-0.2262,-0.2249,-0.2235,-0.2195,-0.2214,-0.2196,-0.2215,-0.2223,-0.2177,-0.2176,-0.2155,-0.2143,-0.2161,-0.2088,-0.2102,-0.2132,-0.2178,-0.2098,-0.2066,-0.2054,-0.2224,-0.2225,-0.2226,-0.2227,0,0,-0.219,-0.2192,-0.2179,-0.2173,-0.217,-0.2147,-0.211,-0.209,-0.2074,-0.2064,-0.2032,-0.1996,-0.2024,-0.2014,-0.2031,-0.2001,-0.1923,-0.2034,-0.2035,-0.2012,-0.1841,-0.1817,-0.1802,-0.1941,-0.1939,-0.1937,-0.1841,0,-0.2097,-0.2034,-0.2055,-0.199,-0.1963,-0.2002,-0.1969,-0.1963,-0.1969,-0.1946,-0.1954,-0.1927,-0.1966,-0.196,-0.1933,-0.1938,-0.1889,-0.1946,-0.191,-0.1909,-0.1909,-0.1786,-0.1761,-0.1671,-0.1829,-0.1827,-0.1826,0,-0.1981,-0.1966,-0.1898,-0.1899,-0.1889,-0.1859,-0.1842,-0.182,-0.1814,-0.1821,-0.1809,-0.1832,-0.1795,-0.1842,-0.179,-0.1828,-0.1815,-0.1815,-0.1812,-0.1809,-0.1861,-0.1777,-0.1642,-0.1628,-0.1807,-0.1808,-0.181,0,-0.1887,-0.1851,-0.1806,-0.18,-0.18,-0.1778,-0.1777,-0.1773,-0.1759,-0.1745,-0.1736,-0.1717,-0.1705,-0.169,-0.1707,-0.174,-0.1651,-0.17,-0.1654,-0.1654,-0.1633,-0.1634,-0.1492,-0.1627,-0.1627,-0.1627,-0.1627,0,-0.1781,-0.1737,-0.1764,-0.1735,-0.1688,-0.1713,-0.1664,-0.1668,-0.1664,-0.1636,-0.1669,-0.1642,-0.1667,-0.1642,-0.1656,-0.1609,-0.1604,-0.1608,-0.1612,-0.1604,-0.1603,-0.1595,-0.1601,-0.1624,-0.1624,-0.1625,-0.1626,0,-0.1668,-0.1684,-0.1637,-0.1641,-0.1641,-0.1605,-0.1609,-0.1582,-0.1591,-0.1556,-0.1549,-0.1563,-0.1535,-0.1551,-0.1523,-0.1532,-0.1471,-0.1484,-0.1473,-0.1476,-0.1429,-0.1432,-0.1276,-0.1256,-0.1404,-0.1403,-0.1402,0,-0.1598,-0.1566,-0.1567,-0.1551,-0.1548,-0.1522,-0.1508,-0.1532,-0.1516,-0.1506,-0.148,-0.1456,-0.1437,-0.1391,-0.1398,-0.1376,-0.1388,-0.1335,-0.1385,-0.1378,-0.1386,-0.1387,-0.1383,-0.1324,-0.1323,-0.1321,-0.132,0,-0.1472,-0.1482,-0.1462,-0.1443,-0.1426,-0.1413,-0.1402,-0.1387,-0.1411,-0.1391,-0.1364,-0.1349,-0.132,-0.1295,-0.1277,-0.1275,-0.13,-0.1304,-0.1292,-0.1283,-0.1278,-0.1279,-0.1444,-0.1307,-0.1309,-0.131,-0.131,-0.1311,-0.1378,-0.1351,-0.1347,-0.1323,-0.1317,-0.1306,-0.1281,-0.1288,-0.1265,-0.1244,-0.1259,-0.1226,-0.122,-0.1198,-0.1193,-0.1167,-0.1188,-0.1171,-0.1166,-0.1161,-0.1154,-0.1283,-0.1163,-0.1164,-0.1164,-0.1165,-0.1165,0,-0.1253,-0.1252,-0.123,-0.1214,-0.1195,-0.1222,-0.1211,-0.1193,-0.1164,-0.1156,-0.1137,-0.1105,-0.1081,-0.1086,-0.1064,-0.1042,-0.1053,-0.1035,-0.1036,-0.1035,-0.1137,-0.1149,-0.1026,-0.1026,-0.1026,-0.1026,-0.1026,-0.1026,-0.1185,-0.114,-0.1148,-0.11,-0.11,-0.1069,-0.106,-0.105,-0.1044,-0.1007,-0.0987,-0.0991,-0.0988,-0.0965,-0.0944,-0.0946,-0.0935,-0.0913,-0.0919,-0.1014,-0.1028,-0.1041,-0.1052,-0.0911,-0.0911,-0.0819,-0.0818,-0.0817]},{"header":{"parameterUnit":"m.s-1","parameterCategory":1,"la1":30.2991,"la2":30.254,"lo1":-89.0895,"lo2":-89.0444,"dy":0.0017,"dx":0.0017,"nx":28,"ny":28,"refTime":"2023-08-22T09:00:00:Z","depth":0,"parameterNumber":3,"parameterNumberName":"V-component_of_WINDS"},"data":[0,0,0,0,0,0,0,0,0,0,0,0,0,0,0,0,0,0,0,0,0,0,0,0,0,0,0,0,0,0,0,0,0,0,0,0,0,0,0,0,0,0,0,0,0,0,0,0,0,0,0,0,0,0,0,0,0,0,-2.9584,-2.9584,0,-2.9563,-2.9563,-2.9563,-2.9514,-2.9513,-2.9512,-2.9511,-2.9486,-2.9486,-2.9487,0,0,0,0,0,0,0,0,0,0,0,0,0,-2.9581,-2.9581,-2.9584,-2.9584,-2.9584,-2.9563,-2.9563,-2.9563,-2.9514,-2.9513,-2.9511,-2.951,-2.9486,-2.9486,-2.9487,0,0,0,0,0,0,0,0,0,0,0,0,0,-2.9573,-2.9581,-2.9584,-2.9557,-2.9554,-2.9563,-2.9563,-2.9563,-2.9514,-2.9512,-2.9511,-2.951,-2.9486,-2.9486,-2.9487,-2.952,0,0,-2.9488,-2.9488,0,0,0,0,0,0,0,0,-2.9574,-2.9573,-2.9561,-2.9559,-2.9556,-2.954,-2.9553,-2.9548,-2.9514,-2.9529,-2.9511,-2.9509,-2.9505,-2.9504,-2.9503,-2.9519,-2.9518,-2.9488,-2.9488,-2.9489,-2.9489,0,0,0,0,0,0,0,-2.9574,-2.9574,-2.9576,-2.9561,-2.9558,-2.9545,-2.9543,-2.9552,-2.9526,-2.9528,-2.9524,-2.9523,-2.9503,-2.9503,-2.9502,-2.9517,-2.9488,-2.9488,-2.9489,-2.9489,-2.9563,-2.9565,0,0,0,0,0,0,-2.9579,-2.9575,-2.9576,-2.9575,-2.9561,-2.9547,-2.9544,-2.9546,-2.9525,-2.9521,-2.9524,-2.952,-2.9503,-2.9502,-2.9501,-2.9541,-2.9489,-2.9489,-2.9489,-2.9561,-2.9564,-2.9565,0,0,0,0,0,0,-2.9579,-2.958,-2.9577,-2.9574,-2.9573,-2.9548,-2.9552,-2.9547,-2.9546,-2.9523,-2.9517,-2.9528,-2.9501,-2.95,-2.9517,-2.954,-2.9489,-2.949,-2.9559,-2.9562,-2.9564,-2.962,0,0,0,0,0,0,-2.9579,-2.958,-2.9592,-2.9575,-2.9573,-2.9594,-2.9553,-2.9547,-2.9547,-2.9543,-2.9525,-2.9521,-2.95,-2.9516,-2.9517,-2.9539,-2.949,-2.9557,-2.9561,-2.9564,-2.9616,-2.9625,-2.9632,0,0,0,0,0,-2.9579,-2.9607,-2.9593,-2.9593,-2.9588,-2.9595,-2.9594,-2.957,-2.9549,-2.9562,-2.9547,-2.9522,-2.9537,-2.9518,-2.9519,-2.9542,-2.9556,-2.956,-2.9563,-2.9613,-2.9623,-2.9631,0,0,0,0,0,0,-2.9626,-2.9604,-2.9588,-2.9611,-2.9606,-2.9587,-2.9601,-2.9581,-2.958,-2.9575,-2.9545,-2.9542,-2.9563,-2.9553,-2.9533,-2.9574,-2.9542,-2.9547,-2.958,-2.9589,-2.9597,-2.9599,-2.949,0,0,0,0,0,-2.9639,-2.9647,-2.9627,-2.965,-2.9648,-2.9626,-2.9627,-2.961,-2.9602,-2.9599,-2.9586,-2.9579,-2.9582,-2.9585,-2.9586,-2.9615,-2.9612,-2.9631,-2.9638,-2.9645,-2.9649,-2.9667,-2.9676,-2.9578,-2.9578,-2.9578,0,0,-2.9666,-2.9655,-2.9662,-2.9659,-2.9652,-2.9662,-2.9624,-2.9634,-2.9641,-2.96,-2.9616,-2.9606,-2.9596,-2.962,-2.963,-2.9613,-2.9676,-2.965,-2.9655,-2.9656,-2.9672,-2.9681,-2.9689,-2.9581,-2.958,-2.958,0,0,-2.972,-2.9712,-2.9732,-2.9727,-2.9719,-2.9704,-2.9709,-2.9694,-2.9686,-2.9702,-2.9673,-2.968,-2.9686,-2.9682,-2.968,-2.9737,-2.9714,-2.9738,-2.9778,-2.9796,-2.9803,-2.981,-2.9833,-2.9841,-2.9742,-2.9742,-2.9742,0,-2.9754,-2.9768,-2.9744,-2.9758,-2.9759,-2.9725,-2.9745,-2.9741,-2.9733,-2.9734,-2.9716,-2.9726,-2.9716,-2.974,-2.9754,-2.9753,-2.9759,-2.974,-2.9804,-2.9811,-2.9817,-2.9838,-2.9847,-2.9746,-2.9745,-2.9745,-2.9745,0,-2.9812,-2.9822,-2.9839,-2.9835,-2.9837,-2.9854,-2.9833,-2.9838,-2.9822,-2.9809,-2.9827,-2.9816,-2.9816,-2.982,-2.9802,-2.9842,-2.9833,-2.981,-2.9777,-2.983,-2.985,-2.9857,-2.975,-2.9749,-2.9748,-2.9747,0,0,-2.9893,-2.9879,-2.9885,-2.9885,-2.9875,-2.9882,-2.9898,-2.9901,-2.9907,-2.9903,-2.9917,-2.9925,-2.9905,-2.9903,-2.9885,-2.99,-2.995,-2.9876,-2.9875,-2.9892,-2.9997,-3.0016,-3.0025,-2.9935,-2.9936,-2.9937,-2.9998,0,-2.9946,-2.9974,-2.9955,-2.9986,-2.9997,-2.9967,-2.9981,-2.9977,-2.9966,-2.9974,-2.9961,-2.9969,-2.994,-2.994,-2.9954,-2.9941,-2.9971,-2.9936,-2.9949,-2.9949,-2.9954,-3.0035,-3.0054,-3.0112,-3.0006,-3.0007,-3.0008,0,-3.0011,-3.0014,-3.0047,-3.0039,-3.0042,-3.0056,-3.0059,-3.0065,-3.0061,-3.0052,-3.0053,-3.0032,-3.0048,-3.0016,-3.0039,-3.0016,-3.002,-3.0015,-3.0017,-3.0018,-2.9983,-3.0041,-3.013,-3.0139,-3.0019,-3.0018,-3.0018,0,-3.0071,-3.0082,-3.0105,-3.0105,-3.0094,-3.0105,-3.0101,-3.0095,-3.0099,-3.0101,-3.0104,-3.0107,-3.0109,-3.0112,-3.0093,-3.0071,-3.012,-3.0085,-3.0114,-3.0115,-3.0126,-3.0126,-3.0219,-3.0126,-3.0126,-3.0126,-3.0126,0,-3.0133,-3.0155,-3.0132,-3.0146,-3.0171,-3.0148,-3.0173,-3.0166,-3.0162,-3.0174,-3.0147,-3.0159,-3.0133,-3.0142,-3.0127,-3.0151,-3.0151,-3.0145,-3.0141,-3.0149,-3.015,-3.0152,-3.0148,-3.0128,-3.0128,-3.0127,-3.0127,0,-3.0204,-3.0188,-3.0212,-3.0201,-3.0199,-3.0218,-3.021,-3.0222,-3.0211,-3.0228,-3.023,-3.0213,-3.0223,-3.0205,-3.0212,-3.0202,-3.0236,-3.0224,-3.0238,-3.0235,-3.0267,-3.0265,-3.0366,-3.0379,-3.0276,-3.0277,-3.0277,0,-3.0245,-3.0262,-3.0255,-3.0263,-3.0261,-3.0272,-3.0277,-3.0257,-3.0263,-3.0261,-3.0275,-3.0284,-3.029,-3.0308,-3.0296,-3.0302,-3.0292,-3.0327,-3.0293,-3.0301,-3.0296,-3.0296,-3.0299,-3.0334,-3.0336,-3.0337,-3.0337,0,-3.0321,-3.0314,-3.0323,-3.033,-3.0338,-3.0342,-3.0344,-3.0351,-3.0329,-3.0338,-3.035,-3.0355,-3.0364,-3.0374,-3.0378,-3.0374,-3.0353,-3.0349,-3.0356,-3.0365,-3.0373,-3.0372,-3.026,-3.0346,-3.0345,-3.0345,-3.0344,-3.0344,-3.038,-3.0395,-3.0394,-3.0405,-3.0406,-3.0409,-3.0422,-3.0414,-3.0424,-3.0432,-3.0418,-3.0434,-3.0432,-3.0436,-3.0434,-3.0447,-3.0431,-3.0441,-3.0444,-3.0448,-3.0454,-3.037,-3.0447,-3.0447,-3.0446,-3.0446,-3.0446,0,-3.0457,-3.0456,-3.0467,-3.0472,-3.0482,-3.0463,-3.0465,-3.0475,-3.049,-3.049,-3.0498,-3.0513,-3.0523,-3.0513,-3.0522,-3.0534,-3.0525,-3.0537,-3.0537,-3.0537,-3.0466,-3.046,-3.0544,-3.0544,-3.0544,-3.0544,-3.0544,-3.0544,-3.0498,-3.0524,-3.0518,-3.0544,-3.0542,-3.0559,-3.0562,-3.0566,-3.0567,-3.0586,-3.0595,-3.0589,-3.0586,-3.0595,-3.0604,-3.0601,-3.0606,-3.0622,-3.0616,-3.0551,-3.0541,-3.0532,-3.0526,-3.0623,-3.0623,-3.0686,-3.0687,-3.0687]}]]